[[{"header":{"parameterUnit":"m.s-1","parameterCategory":1,"la1":30.2991,"la2":30.254,"lo1":-89.0895,"lo2":-89.0444,"dy":0.0017,"dx":0.0017,"nx":28,"ny":28,"refTime":"2023-04-27T21:00:00:Z","depth":0,"parameterNumber":2,"parameterNumberName":"U-component_of_WINDS"},"data":[0,0,0,0,0,0,0,0,0,0,0,0,0,0,0,0,0,0,0,0,0,0,0,0,0,0,0,0,0,0,0,0,0,0,0,0,0,0,0,0,0,0,0,0,0,0,0,0,0,0,0,0,0,0,0,0,0,0,-2.1897,-2.1897,0,-2.1936,-2.1936,-2.1937,-2.1909,-2.1908,-2.1906,-2.1905,-2.1946,-2.1948,-2.195,0,0,0,0,0,0,0,0,0,0,0,0,0,-2.18,-2.1802,-2.1897,-2.1897,-2.1898,-2.1936,-2.1936,-2.1937,-2.1909,-2.1908,-2.1906,-2.1905,-2.1945,-2.1948,-2.1951,0,0,0,0,0,0,0,0,0,0,0,0,0,-2.1841,-2.1802,-2.1897,-2.1888,-2.1888,-2.1936,-2.1936,-2.1937,-2.1909,-2.1907,-2.1906,-2.1904,-2.1944,-2.1948,-2.1951,-2.2009,0,0,-2.1961,-2.1963,0,0,0,0,0,0,0,0,-2.1838,-2.1844,-2.1889,-2.1889,-2.1889,-2.1915,-2.1917,-2.1961,-2.191,-2.1901,-2.1905,-2.1903,-2.1937,-2.1941,-2.1953,-2.2011,-2.2012,-2.1961,-2.1963,-2.1965,-2.1966,0,0,0,0,0,0,0,-2.1835,-2.1842,-2.1912,-2.189,-2.189,-2.1883,-2.1887,-2.1925,-2.1929,-2.1902,-2.19,-2.1905,-2.1937,-2.1949,-2.1953,-2.2013,-2.1961,-2.1964,-2.1966,-2.1968,-2.2122,-2.2124,0,0,0,0,0,0,-2.1833,-2.184,-2.1911,-2.1913,-2.1858,-2.1887,-2.1891,-2.1909,-2.1929,-2.193,-2.1906,-2.1903,-2.1945,-2.1949,-2.1955,-2.2025,-2.1965,-2.1968,-2.197,-2.212,-2.2122,-2.2125,0,0,0,0,0,0,-2.1831,-2.184,-2.1909,-2.1876,-2.1885,-2.189,-2.1911,-2.1911,-2.1923,-2.1932,-2.1933,-2.1918,-2.1943,-2.195,-2.1996,-2.2026,-2.197,-2.1973,-2.2117,-2.2121,-2.2124,-2.2164,0,0,0,0,0,0,-2.1829,-2.1839,-2.1861,-2.1877,-2.1886,-2.1949,-2.1912,-2.1913,-2.1929,-2.1925,-2.1944,-2.1945,-2.1942,-2.1991,-2.1999,-2.2029,-2.1975,-2.2115,-2.2119,-2.2123,-2.216,-2.2168,-2.2175,0,0,0,0,0,-2.1825,-2.1871,-2.1862,-2.1871,-2.1914,-2.1951,-2.1957,-2.1953,-2.1931,-2.1953,-2.196,-2.1944,-2.2021,-2.1996,-2.2005,-2.2036,-2.2113,-2.2118,-2.2122,-2.2157,-2.2167,-2.2175,0,0,0,0,0,0,-2.1858,-2.1873,-2.1863,-2.1915,-2.1932,-2.1946,-2.1974,-2.1963,-2.1986,-2.1982,-2.1976,-2.1981,-2.2029,-2.2037,-2.2009,-2.2094,-2.2064,-2.207,-2.2087,-2.2096,-2.2104,-2.2101,-2.1978,0,0,0,0,0,-2.1871,-2.19,-2.1911,-2.1956,-2.1965,-2.1968,-2.1985,-2.198,-2.1997,-2.2005,-2.2014,-2.2032,-2.206,-2.2079,-2.2105,-2.2161,-2.2166,-2.2188,-2.2195,-2.2201,-2.2207,-2.2239,-2.2249,-2.214,-2.214,-2.214,0,0,-2.1899,-2.191,-2.1929,-2.1963,-2.1976,-2.2007,-2.1975,-2.2008,-2.2031,-2.201,-2.2054,-2.2061,-2.2081,-2.2133,-2.2156,-2.2141,-2.2238,-2.2207,-2.2212,-2.2215,-2.2245,-2.2255,-2.2264,-2.2143,-2.2143,-2.2142,0,0,-2.1965,-2.1977,-2.2015,-2.2029,-2.2049,-2.205,-2.206,-2.2076,-2.2081,-2.2125,-2.211,-2.2137,-2.2185,-2.22,-2.2214,-2.2287,-2.2275,-2.2296,-2.2336,-2.2366,-2.2375,-2.2383,-2.2409,-2.2419,-2.2302,-2.2302,-2.2302,0,-2.1997,-2.2042,-2.2037,-2.2072,-2.2088,-2.207,-2.211,-2.2124,-2.2151,-2.2163,-2.2145,-2.2207,-2.2218,-2.2274,-2.2292,-2.2303,-2.2315,-2.2294,-2.2374,-2.2382,-2.2389,-2.2414,-2.2424,-2.2305,-2.2304,-2.2304,-2.2304,0,-2.2081,-2.2113,-2.2142,-2.2169,-2.2188,-2.2226,-2.2227,-2.2247,-2.2241,-2.2245,-2.2291,-2.2304,-2.2334,-2.2347,-2.2341,-2.2402,-2.2392,-2.2375,-2.2344,-2.2402,-2.2426,-2.2435,-2.2308,-2.2307,-2.2307,-2.2306,0,0,-2.2169,-2.2193,-2.2204,-2.2216,-2.2237,-2.2262,-2.2299,-2.2327,-2.2345,-2.2365,-2.2396,-2.2438,-2.2423,-2.2439,-2.2435,-2.2462,-2.252,-2.2441,-2.2442,-2.2456,-2.2589,-2.2602,-2.2613,-2.2512,-2.2513,-2.2515,-2.2587,0,-2.2236,-2.23,-2.2297,-2.2358,-2.2387,-2.2372,-2.2404,-2.2421,-2.2426,-2.2452,-2.2458,-2.2488,-2.2465,-2.2474,-2.25,-2.2507,-2.2547,-2.2502,-2.2541,-2.2543,-2.2537,-2.2626,-2.264,-2.2707,-2.2597,-2.2598,-2.2599,0,-2.2324,-2.2347,-2.241,-2.2427,-2.244,-2.2469,-2.2496,-2.2521,-2.254,-2.2542,-2.256,-2.2552,-2.259,-2.2559,-2.2612,-2.2582,-2.2598,-2.2604,-2.2606,-2.261,-2.2575,-2.2632,-2.2728,-2.2739,-2.2614,-2.2613,-2.2612,0,-2.2382,-2.2429,-2.2473,-2.2484,-2.2505,-2.2526,-2.2536,-2.2553,-2.2571,-2.2595,-2.2606,-2.2634,-2.2649,-2.2671,-2.2671,-2.2648,-2.2725,-2.2694,-2.2729,-2.2729,-2.2746,-2.2745,-2.2846,-2.2755,-2.2755,-2.2755,-2.2755,0,-2.2459,-2.2498,-2.25,-2.2527,-2.2571,-2.2567,-2.2612,-2.2619,-2.2635,-2.2664,-2.2652,-2.268,-2.2678,-2.2706,-2.2706,-2.2751,-2.2758,-2.2761,-2.2761,-2.2762,-2.2762,-2.2773,-2.2768,-2.2758,-2.2757,-2.2757,-2.2756,0,-2.2531,-2.2534,-2.2581,-2.2597,-2.2602,-2.2634,-2.2649,-2.2675,-2.2679,-2.2716,-2.2725,-2.2731,-2.2764,-2.2766,-2.2804,-2.2804,-2.2859,-2.2853,-2.2852,-2.2851,-2.2887,-2.2884,-2.2999,-2.3015,-2.2913,-2.2914,-2.2915,0,-2.258,-2.261,-2.263,-2.2648,-2.2659,-2.2689,-2.2707,-2.2705,-2.2725,-2.275,-2.2773,-2.2805,-2.283,-2.2883,-2.2892,-2.2921,-2.2916,-2.2954,-2.292,-2.2921,-2.2917,-2.2916,-2.2919,-2.2961,-2.2962,-2.2963,-2.2964,0,-2.2666,-2.2666,-2.2693,-2.272,-2.2742,-2.2764,-2.2784,-2.28,-2.28,-2.2823,-2.2857,-2.2876,-2.2915,-2.2947,-2.2975,-2.2986,-2.2976,-2.2975,-2.2985,-2.2987,-2.2985,-2.2987,-2.2871,-2.2972,-2.2971,-2.2971,-2.297,-2.297,-2.2729,-2.2755,-2.2774,-2.2804,-2.2819,-2.2838,-2.2864,-2.2872,-2.2899,-2.2931,-2.2928,-2.2965,-2.2984,-2.3022,-2.3035,-2.3064,-2.3051,-2.3065,-2.3069,-2.3073,-2.3077,-2.298,-2.3069,-2.3069,-2.3069,-2.3069,-2.3069,0,-2.2816,-2.2827,-2.2855,-2.2883,-2.2907,-2.2895,-2.2917,-2.2938,-2.2971,-2.299,-2.3015,-2.3054,-2.3085,-2.3096,-2.3126,-2.3148,-2.3144,-2.3156,-2.3155,-2.3158,-2.3086,-2.3075,-2.3159,-2.3159,-2.3159,-2.3159,-2.3159,-2.3159,-2.2864,-2.2908,-2.291,-2.2962,-2.2973,-2.3009,-2.3023,-2.3041,-2.3056,-2.31,-2.3126,-2.3133,-2.3149,-2.3181,-2.3209,-2.3212,-2.3224,-2.3238,-2.3239,-2.3172,-2.3163,-2.3154,-2.3143,-2.3241,-2.3241,-2.3308,-2.3309,-2.3309]},{"header":{"parameterUnit":"m.s-1","parameterCategory":1,"la1":30.2991,"la2":30.254,"lo1":-89.0895,"lo2":-89.0444,"dy":0.0017,"dx":0.0017,"nx":28,"ny":28,"refTime":"2023-04-27T21:00:00:Z","depth":0,"parameterNumber":3,"parameterNumberName":"V-component_of_WINDS"},"data":[0,0,0,0,0,0,0,0,0,0,0,0,0,0,0,0,0,0,0,0,0,0,0,0,0,0,0,0,0,0,0,0,0,0,0,0,0,0,0,0,0,0,0,0,0,0,0,0,0,0,0,0,0,0,0,0,0,0,1.9872,1.9871,0,1.9802,1.9801,1.98,1.9741,1.9741,1.974,1.974,1.9665,1.9663,1.9662,0,0,0,0,0,0,0,0,0,0,0,0,0,1.9953,1.9952,1.9872,1.9871,1.987,1.9802,1.9801,1.98,1.9742,1.9741,1.974,1.9739,1.9665,1.9663,1.9662,0,0,0,0,0,0,0,0,0,0,0,0,0,1.9904,1.9951,1.9872,1.9833,1.9829,1.9802,1.9801,1.98,1.9742,1.9741,1.974,1.9739,1.9666,1.9664,1.9662,1.9667,0,0,1.9655,1.9654,0,0,0,0,0,0,0,0,1.9906,1.9901,1.984,1.9836,1.9831,1.9779,1.9802,1.9755,1.9742,1.9775,1.974,1.9738,1.9703,1.9698,1.9687,1.9664,1.9661,1.9655,1.9654,1.9653,1.9652,0,0,0,0,0,0,0,1.991,1.9903,1.9844,1.9839,1.9833,1.9818,1.981,1.9793,1.9745,1.9772,1.9767,1.976,1.9701,1.9689,1.9685,1.9659,1.9655,1.9653,1.9652,1.9651,1.9636,1.9637,0,0,0,0,0,0,1.992,1.9907,1.9846,1.9842,1.9867,1.9817,1.9808,1.9797,1.9745,1.9736,1.9761,1.9758,1.9693,1.9687,1.9682,1.9684,1.9653,1.9651,1.965,1.9636,1.9637,1.9638,0,0,0,0,0,0,1.9922,1.9915,1.9849,1.9873,1.9864,1.9817,1.9805,1.9796,1.9784,1.9737,1.9728,1.9758,1.9692,1.9685,1.9671,1.9681,1.965,1.9648,1.9635,1.9636,1.9637,1.969,0,0,0,0,0,0,1.9924,1.9916,1.9918,1.9874,1.9863,1.9841,1.9805,1.9795,1.9781,1.9776,1.9732,1.9723,1.9691,1.9675,1.9669,1.9678,1.9646,1.9633,1.9635,1.9637,1.9687,1.9693,1.9698,0,0,0,0,0,1.9927,1.9936,1.9919,1.9912,1.9865,1.9842,1.9835,1.9798,1.9782,1.9784,1.9753,1.9725,1.9681,1.9674,1.9667,1.9675,1.9633,1.9635,1.9637,1.9685,1.9692,1.9698,0,0,0,0,0,0,1.9982,1.9929,1.991,1.9904,1.9878,1.9832,1.9832,1.9807,1.9784,1.978,1.9735,1.9726,1.9717,1.9694,1.9687,1.9677,1.9653,1.9654,1.9692,1.9698,1.9704,1.9709,1.9644,0,0,0,0,0,1.9993,1.998,1.9934,1.9933,1.9921,1.988,1.9868,1.9842,1.9813,1.9801,1.977,1.9741,1.9721,1.9709,1.9688,1.9684,1.9673,1.9686,1.9692,1.9696,1.9697,1.9693,1.9698,1.9644,1.9644,1.9644,0,0,2.0016,1.9986,1.998,1.9944,1.992,1.9906,1.987,1.9857,1.9846,1.9799,1.9784,1.976,1.9726,1.9717,1.9712,1.9698,1.971,1.9699,1.9703,1.9701,1.9695,1.97,1.9705,1.9645,1.9645,1.9645,0,0,2.0051,2.0028,2.0024,2.0002,1.9967,1.9939,1.9939,1.9896,1.9879,1.9864,1.9828,1.9813,1.978,1.9756,1.974,1.9767,1.974,1.9761,1.9789,1.9785,1.979,1.9793,1.9802,1.9805,1.9762,1.9763,1.9763,0,2.0084,2.0063,2.0025,2.0014,1.9999,1.9956,1.9952,1.9932,1.9892,1.9882,1.9867,1.9824,1.9798,1.9783,1.979,1.9778,1.9775,1.9766,1.9792,1.9795,1.9798,1.9806,1.9809,1.9765,1.9765,1.9765,1.9765,0,2.0104,2.009,2.0091,2.0055,2.0039,2.0032,1.9992,1.9981,1.9957,1.993,1.9915,1.9882,1.9853,1.9848,1.9824,1.983,1.9822,1.9801,1.9775,1.9807,1.9813,1.9816,1.9769,1.9768,1.9768,1.9767,0,0,2.017,2.0114,2.0115,2.0098,2.0057,2.0044,2.0035,2.0008,1.9999,1.9973,1.9962,1.9935,1.9915,1.9897,1.987,1.9867,1.9889,1.9845,1.9844,1.9854,1.9892,1.9908,1.9912,1.9871,1.9872,1.9872,1.9895,0,2.0198,2.0179,2.0145,2.0137,2.0122,2.0082,2.0073,2.0047,2.0022,2.0005,1.9977,1.9958,1.9934,1.9922,1.9918,1.9887,1.9896,1.9885,1.986,1.986,1.9869,1.9915,1.9932,1.9955,1.9897,1.9897,1.9898,0,2.0228,2.0205,2.0196,2.0155,2.0148,2.0141,2.0113,2.0099,2.0067,2.0049,2.0029,2.0,1.9986,1.9964,1.9944,1.9938,1.9925,1.9909,1.9909,1.9904,1.988,1.9911,1.9962,1.9965,1.9902,1.9901,1.9901,0,2.0276,2.0243,2.0233,2.0219,2.0173,2.0169,2.0149,2.0117,2.0102,2.0078,2.0068,2.0042,2.0028,2.0008,1.9972,1.9959,1.9955,1.993,1.9939,1.994,1.9939,1.994,1.9988,1.9933,1.9933,1.9933,1.9933,0,2.031,2.0305,2.0254,2.0248,2.0241,2.0202,2.0196,2.0172,2.0144,2.0132,2.0095,2.0084,2.0038,2.0021,1.9992,1.998,1.9974,1.9958,1.995,1.9961,1.9963,1.9951,1.9948,1.9934,1.9934,1.9934,1.9933,0,2.0362,2.0328,2.0314,2.0271,2.026,2.0257,2.022,2.0212,2.0185,2.017,2.0164,2.0121,2.01,2.0062,2.0029,2.001,2.0003,1.999,2.0014,2.0009,2.0019,2.0019,2.0061,2.0064,2.0009,2.001,2.001,0,2.0386,2.0381,2.0339,2.0328,2.031,2.0294,2.0279,2.024,2.0226,2.0191,2.0187,2.0162,2.0141,2.0108,2.0073,2.0048,2.0034,2.0051,2.003,2.004,2.0033,2.0034,2.0032,2.0055,2.0056,2.0057,2.0057,0,2.0431,2.0414,2.0395,2.0371,2.0355,2.0333,2.0309,2.0303,2.0258,2.0244,2.0222,2.0206,2.0173,2.0149,2.0119,2.0097,2.0069,2.0064,2.0065,2.0075,2.0088,2.008,2.0026,2.0063,2.0062,2.0062,2.0062,2.0061,2.0469,2.0463,2.0432,2.0412,2.039,2.0369,2.036,2.0332,2.0313,2.0284,2.0262,2.0241,2.0209,2.0166,2.0146,2.0129,2.0116,2.0117,2.0117,2.0118,2.0122,2.0092,2.0123,2.0123,2.0123,2.0122,2.0122,0,2.0511,2.049,2.0472,2.044,2.0425,2.0402,2.0374,2.0362,2.0345,2.0318,2.0298,2.0272,2.0249,2.0213,2.0186,2.0179,2.0166,2.0174,2.0173,2.0168,2.0135,2.0137,2.0185,2.0185,2.0185,2.0185,2.0185,2.0185,2.0532,2.052,2.05,2.0478,2.0455,2.0436,2.0422,2.0402,2.038,2.0354,2.0335,2.0312,2.0281,2.0252,2.0229,2.0219,2.021,2.0222,2.0208,2.0177,2.0171,2.0165,2.0167,2.0221,2.0221,2.0243,2.0243,2.0243]}]]